Metropolis, IL

7:24 PM CST on February 20, 2017 (GMT -0600)
Metropolis

Weather History for KM30 - May, 2012

Change the Weather History Date:

Wednesday, May 9, 2012

  Actual Average (KPAH) Record (KPAH)
Temperature  
Mean Temperature 63 °F -  
Max Temperature 75 °F 74 °F 88 °F (1986)
Min Temperature 51 °F 51 °F 36 °F (1960)
Degree Days  
Heating Degree Days 2    
Growing Degree Days 13 (Base 50)    
Moisture  
Dew Point 46 °F    
Average Humidity 55    
Maximum Humidity 94    
Minimum Humidity 28    
Precipitation  
Precipitation 0.00 in - - ()
Sea Level Pressure  
Sea Level Pressure 29.94 in    
Wind  
Wind Speed 4 mph (NW)    
Max Wind Speed 14 mph    
Max Gust Speed 22 mph    
Visibility 10 miles    
Events      
Averages and records for this station are not official NWS values.
T = Trace of Precipitation, MM = Missing Value Source: NWS Daily Summary

Daily Weather History Graph

Daily Weather History Graph

Search for Another Location

Airport or City:

Trip Planner

Search our weather history database for the weather conditions in past years. The results will help you decide how hot, cold, wet, or windy it might be!

Date:

Astronomy

May. 09, 2012 Rise Set
Actual Time 5:51 AM CDT 7:51 PM CDT
Civil Twilight 5:22 AM CDT 8:20 PM CDT
Nautical Twilight 4:47 AM CDT 8:55 PM CDT
Astronomical Twilight 4:10 AM CDT 9:33 PM CDT
Moon 11:50 PM CDT (5/9) 9:07 AM CDT (5/9)
Length of Visible Light 14h 57m
Length of Day
14h 00m
Waning Gibbous, 82% of the Moon is Illuminated
May 9
Waning Gibbous
May 12
Last Quarter
May 20
New
May 28
First Quarter
Jun 4
Full

Hourly Weather History & Observations

Time (CDT) Temp. Dew Point Humidity Pressure Visibility Wind Dir Wind Speed Gust Speed Precip Events Conditions
12:15 AM 58.3 °F 51.6 °F 78% 29.96 in 10.0 mi Calm Calm - N/A   Clear
12:35 AM 59.2 °F 51.3 °F 75% 29.96 in 10.0 mi Calm Calm - N/A   Clear
12:55 AM 59.9 °F 51.3 °F 73% 29.96 in 10.0 mi Calm Calm - N/A   Clear
1:15 AM 60.8 °F 49.8 °F 67% 29.96 in 10.0 mi NW 4.6 mph - N/A   Clear
1:35 AM 61.7 °F 49.5 °F 64% 29.96 in 10.0 mi NW 3.5 mph - N/A   Clear
1:55 AM 61.0 °F 49.8 °F 67% 29.95 in 10.0 mi Calm Calm - N/A   Clear
2:15 AM 61.3 °F 48.7 °F 63% 29.94 in 10.0 mi NW 5.8 mph - N/A   Clear
2:35 AM 60.6 °F 48.4 °F 64% 29.94 in 10.0 mi NW 4.6 mph - N/A   Clear
2:55 AM 59.9 °F 48.2 °F 65% 29.94 in 10.0 mi NW 3.5 mph - N/A   Clear
3:15 AM 59.5 °F 48.9 °F 68% 29.94 in 10.0 mi NW 3.5 mph - N/A   Clear
3:35 AM 59.0 °F 48.9 °F 69% 29.94 in 10.0 mi NNW 3.5 mph - N/A   Clear
3:55 AM 58.6 °F 48.9 °F 70% 29.93 in 10.0 mi Calm Calm - N/A   Clear
4:15 AM 56.7 °F 49.3 °F 76% 29.93 in 10.0 mi Calm Calm - N/A   Clear
4:35 AM 54.3 °F 49.6 °F 84% 29.93 in 10.0 mi Calm Calm - N/A   Clear
4:55 AM 53.6 °F 50.2 °F 88% 29.94 in 10.0 mi Calm Calm - N/A   Clear
5:15 AM 53.2 °F 50.9 °F 92% 29.94 in 10.0 mi Calm Calm - N/A   Clear
5:35 AM 52.9 °F 50.2 °F 91% 29.94 in 10.0 mi Calm Calm - N/A   Clear
5:55 AM 52.5 °F 50.5 °F 93% 29.94 in 10.0 mi Calm Calm - N/A   Clear
6:15 AM 51.6 °F 49.8 °F 94% 29.94 in 10.0 mi Calm Calm - N/A   Clear
6:35 AM 52.5 °F 50.2 °F 92% 29.95 in 10.0 mi Calm Calm - N/A   Clear
6:55 AM 54.5 °F 51.8 °F 91% 29.95 in 10.0 mi Calm Calm - N/A   Clear
7:15 AM 57.4 °F 51.8 °F 82% 29.96 in 10.0 mi WNW 3.5 mph - N/A   Clear
7:35 AM 58.6 °F 50.4 °F 74% 29.96 in 10.0 mi Calm Calm - N/A   Clear
7:55 AM 61.2 °F 49.6 °F 66% 29.96 in 10.0 mi NNW 3.5 mph - N/A   Clear
8:15 AM 62.8 °F 49.1 °F 61% 29.96 in 10.0 mi NNW 6.9 mph - N/A   Clear
8:35 AM 64.0 °F 49.1 °F 58% 29.97 in 10.0 mi NNW 9.2 mph - N/A   Clear
8:55 AM 65.1 °F 49.3 °F 56% 29.97 in 10.0 mi NW 8.1 mph - N/A   Scattered Clouds
9:15 AM 67.1 °F 47.3 °F 49% 29.97 in 10.0 mi NNW 9.2 mph - N/A   Scattered Clouds
9:35 AM 67.8 °F 46.9 °F 47% 29.97 in 10.0 mi NW 9.2 mph - N/A   Clear
9:55 AM 69.3 °F 46.6 °F 44% 29.97 in 10.0 mi NNW 9.2 mph - N/A   Clear
10:15 AM 70.5 °F 46.0 °F 42% 29.97 in 10.0 mi NW 6.9 mph - N/A   Clear
10:35 AM 71.2 °F 45.3 °F 39% 29.97 in 10.0 mi WNW 11.5 mph - N/A   Clear
10:55 AM 71.4 °F 43.5 °F 37% 29.97 in 10.0 mi NW 8.1 mph - N/A   Clear
11:15 AM 73.0 °F 43.5 °F 35% 29.97 in 10.0 mi NNW 13.8 mph 17.3 mph N/A   Clear
11:35 AM 72.5 °F 42.8 °F 34% 29.97 in 10.0 mi NW 8.1 mph - N/A   Clear
11:55 AM 73.4 °F 42.6 °F 33% 29.96 in 10.0 mi NW 12.7 mph 17.3 mph N/A   Clear
12:15 PM 72.5 °F 41.9 °F 33% 29.95 in 10.0 mi WNW 11.5 mph 18.4 mph N/A   Clear
12:35 PM 74.3 °F 43.0 °F 33% 29.94 in 10.0 mi NNW 6.9 mph 16.1 mph N/A   Scattered Clouds
12:55 PM 73.9 °F 42.6 °F 32% 29.94 in 10.0 mi WNW 11.5 mph 17.3 mph N/A   Scattered Clouds
1:15 PM 73.8 °F 42.6 °F 33% 29.93 in 10.0 mi West 11.5 mph 17.3 mph N/A   Scattered Clouds
1:35 PM 74.3 °F 41.9 °F 31% 29.93 in 10.0 mi West 12.7 mph 19.6 mph N/A   Scattered Clouds
1:55 PM 74.3 °F 41.7 °F 31% 29.92 in 10.0 mi NNW 11.5 mph 21.9 mph N/A   Scattered Clouds
2:15 PM 75.6 °F 40.5 °F 28% 29.92 in 10.0 mi NW 12.7 mph 17.3 mph N/A   Scattered Clouds
2:35 PM 73.6 °F 41.9 °F 32% 29.91 in 10.0 mi NNW 13.8 mph 20.7 mph N/A   Scattered Clouds
2:55 PM 74.1 °F 39.7 °F 29% 29.91 in 10.0 mi NNW 10.4 mph 18.4 mph N/A   Scattered Clouds
3:15 PM 74.7 °F 41.2 °F 30% 29.91 in 10.0 mi NW 13.8 mph - N/A   Clear
3:35 PM 74.8 °F 41.5 °F 30% 29.91 in 10.0 mi NW 11.5 mph 17.3 mph N/A   Scattered Clouds
3:55 PM 74.7 °F 41.5 °F 30% 29.91 in 10.0 mi NW 9.2 mph 16.1 mph N/A   Mostly Cloudy
4:15 PM 74.3 °F 42.1 °F 31% 29.90 in 10.0 mi NNW 11.5 mph - N/A   Mostly Cloudy
4:35 PM 73.9 °F 42.4 °F 32% 29.90 in 10.0 mi WNW 10.4 mph - N/A   Mostly Cloudy
4:55 PM 74.1 °F 41.9 °F 31% 29.90 in 10.0 mi NW 10.4 mph 17.3 mph N/A   Mostly Cloudy
5:15 PM 72.9 °F 41.9 °F 33% 29.90 in 10.0 mi NNW 13.8 mph - N/A   Scattered Clouds
5:35 PM 72.5 °F 41.0 °F 32% 29.91 in 10.0 mi NNW 12.7 mph - N/A   Scattered Clouds
5:55 PM 72.5 °F 40.8 °F 32% 29.91 in 10.0 mi NNW 11.5 mph 18.4 mph N/A   Clear
6:15 PM 72.1 °F 40.8 °F 32% 29.91 in 10.0 mi NW 9.2 mph 18.4 mph N/A   Scattered Clouds
6:35 PM 71.1 °F 41.0 °F 34% 29.91 in 10.0 mi NW 8.1 mph - N/A   Scattered Clouds
6:55 PM 70.3 °F 41.5 °F 35% 29.91 in 10.0 mi NW 8.1 mph - N/A   Scattered Clouds
7:15 PM 69.1 °F 42.6 °F 38% 29.91 in 10.0 mi NNW 4.6 mph - N/A   Scattered Clouds
7:35 PM 67.6 °F 43.7 °F 42% 29.91 in 10.0 mi NNW 6.9 mph - N/A   Clear
7:55 PM 66.0 °F 43.5 °F 44% 29.92 in 10.0 mi NNW 4.6 mph - N/A   Clear
8:15 PM 64.6 °F 43.5 °F 46% 29.92 in 10.0 mi NW 3.5 mph - N/A   Clear
8:35 PM 62.6 °F 44.8 °F 52% 29.92 in 10.0 mi Calm Calm - N/A   Clear
8:55 PM 61.7 °F 45.3 °F 55% 29.93 in 10.0 mi Calm Calm - N/A   Clear
9:15 PM 58.5 °F 46.2 °F 64% 29.93 in 10.0 mi Calm Calm - N/A   Clear
9:35 PM 57.6 °F 47.7 °F 70% 29.93 in 10.0 mi Calm Calm - N/A   Clear
9:55 PM 57.0 °F 46.6 °F 68% 29.94 in 10.0 mi Calm Calm - N/A   Clear
10:15 PM 55.4 °F 47.3 °F 74% 29.94 in 10.0 mi Calm Calm - N/A   Clear
10:35 PM 55.4 °F 47.3 °F 74% 29.94 in 10.0 mi Calm Calm - N/A   Clear
10:55 PM 55.4 °F 46.8 °F 73% 29.94 in 10.0 mi Calm Calm - N/A   Clear
11:15 PM 54.7 °F 46.8 °F 75% 29.94 in 10.0 mi Calm Calm - N/A   Clear
11:35 PM 53.8 °F 46.9 °F 78% 29.94 in 10.0 mi Calm Calm - N/A   Clear
11:55 PM 53.4 °F 46.9 °F 79% 29.94 in 10.0 mi Calm Calm - N/A   Clear